Reflectivity
-20 4 19 8 -5 -20 -20 12 -12 -20 -20 -20 -20 -20 -20 -20 -20 -20 -20 -20 -20 -20 -20 -20 -20 -20 -20 -20 -20 -20 -20 -20 -20 -20 -20 -20 -20 -20 -20 -20 -20 -20 -20 -20 -20
-20 -16 0 14 9 3 -20 -20 16 -20 -20 -20 -20 -20 -20 -20 -20 -20 -20 -20 -20 -20 -20 -20 -20 -20 -20 -20 -20 -20 -20 -20 -20 -20 -20 -20 -20 -20 -20 -20 -20 -20 -20 -20 -20
-1 -20 4 6 11 11 -19 -10 -11 18 -20 -20 -20 -20 -20 -20 -20 -20 -20 -20 -20 -20 -20 -20 -20 -20 -20 -20 -20 -20 -20 -20 -20 -20 -20 -20 -20 -20 -20 -20 -20 -20 -20 -20 -20
-20 4 -20 -10 0 12 -11 -20 -19 6 17 -20 -20 -20 -20 -20 -20 -20 -20 -20 -20 -20 -20 -20 -20 -20 -20 -20 -20 -20 -20 -20 -20 -20 -20 -20 -20 -20 -20 -20 -20 -20 -20 -20 -20
7 -19 2 -20 10 -6 7 11 5 -4 22 -13 -20 -20 -20 -20 -20 -20 -20 -20 -20 -20 -20 -20 -20 -20 -20 -20 -20 -20 -20 -20 -20 -20 -20 -20 -20 -20 -20 -20 -20 -20 -20 -20 -20
-20 -3 6 8 -14 5 -15 5 8 6 -5 29 -10 -20 -20 -20 -20 -20 -20 -20 -20 -20 -20 -20 -20 -20 -20 -20 -20 -20 -20 -20 -20 -20 -20 -20 -20 -20 -20 -20 -20 -20 -20 -20 -20
4 2 12 11 8 -18 -11 -20 -20 -20 -20 26 18 -5 -20 -20 -20 -20 -20 -20 -20 -20 -20 -20 -20 -20 -20 -20 -20 -20 -20 -20 -20 -20 -20 -20 -20 -20 -20 -20 -20 -20 -20 -20 -20
4 -8 2 8 6 -20 -14 -20 -20 -20 -20 13 23 1 -20 -20 -20 -20 -20 -20 -20 -4 -18 -20 -20 -20 -20 -20 -20 -20 -20 -20 -20 -20 -20 -20 -20 -20 -20 -20 -20 -20 -20 -20 -20
12 -1 -2 -19 -20 -20 -2 -20 -20 -20 -20 21 32 20 13 -20 -20 -20 -20 -20 -20 -20 -5 -19 -20 -20 -20 -20 -20 -20 -20 -20 -20 -20 -20 -20 -20 -20 -20 -20 -20 -20 -20 -20 -20
5 8 -2 -18 -20 -20 -15 -20 -20 -10 -20 24 30 43 6 -20 -20 -20 -20 -20 -20 -20 -20 -10 -20 -20 -20 -20 -20 -20 -20 -20 -20 -20 -20 -20 -20 -20 -20 -20 -20 -20 -20 -20 -20
-20 -6 -19 4 -20 4 -20 -20 -20 9 16 12 18 13 -20 -20 -20 -20 -20 -20 -20 -20 -20 -20 -20 -20 -20 -20 -20 -20 -20 -20 -20 -20 -20 -20 -20 -20 -20 -20 -20 -20 -20 -20 -20
18 17 -18 -16 -20 -14 -14 -20 -11 22 20 17 27 -11 -20 16 -16 -20 -20 -20 -20 -20 -20 -20 -4 -19 -17 -8 -6 -20 -20 -20 -20 -20 -20 -20 -20 -20 -20 -20 -20 -20 -20 -20 -20
1 11 -3 -20 -20 -20 -20 -20 -13 18 29 -4 12 9 -20 -12 -5 -20 -20 -20 -20 -20 -20 -20 -20 3 5 4 -14 -20 -20 -20 -20 -20 -20 -20 -20 -20 -20 -20 -20 -20 -20 -20 -20
-20 -17 16 -13 -20 -16 -19 20 13 19 38 -3 -19 17 -15 27 11 -20 -20 -20 -20 -20 -20 -20 -20 -13 -11 -20 -20 -20 -19 -11 -20 -20 -20 -20 -20 -20 -20 -20 -20 -20 -20 -20 -20
-20 -20 16 -5 -20 -20 -20 15 -1 17 27 8 -20 -20 -20 11 10 -20 -20 -20 -20 -20 -20 -20 -20 -20 -20 -20 -20 -20 -6 -15 -20 -20 -20 -20 -20 -20 -20 -20 -20 -20 -20 -20 -20
-19 -20 9 -17 -16 -20 -20 -20 10 33 24 -16 -14 2 -19 -20 -8 -20 21 -18 -20 -20 -20 -20 -20 -20 -20 -20 -20 -20 -20 -20 -20 -20 -20 -20 -20 -20 -20 -20 -20 -20 -20 -20 -20
-20 -20 -2 21 -20 -20 17 22 6 19 11 20 -2 15 2 -20 -20 -20 32 12 7 12 -20 -20 -20 -20 -20 -20 -20 -20 -20 -20 -20 -20 -20 -20 -20 -20 -20 -20 -20 -20 -20 -20 -20
-20 -20 -19 -20 -20 -20 21 24 21 -18 -11 24 9 7 11 -20 3 18 25 3 -17 -20 -20 -20 -20 -20 -20 -20 -20 -20 -20 -20 -20 -20 -20 -20 -20 -20 -20 -20 -20 -20 -20 -20 -20
-20 -20 -20 -20 -20 21 24 13 -4 -20 2 23 1 41 20 16 -9 26 20 -18 -20 -20 -20 -20 -20 -20 -20 -20 -20 -20 -20 -20 -20 -20 -20 -20 -20 -20 -20 -20 -20 -20 -20 -20 -20
14 -2 -20 -20 -20 28 17 2 -3 -20 -20 14 17 24 33 21 19 26 32 25 -20 -20 -20 -20 -20 -20 -20 -20 -20 -20 -20 -20 -20 -20 -20 -20 -20 -20 -20 -20 -20 -20 -20 -20 -20
18 18 -20 -20 -6 22 27 -5 -19 -20 12 13 30 15 16 30 19 14 -13 -20 -20 -20 -20 -17 8 -7 -20 -20 -20 -20 -20 -20 -20 -20 -20 -20 -20 -20 -20 -20 -20 -20 -20 -20 -20
28 18 9 -20 20 7 21 -19 -20 -20 -20 -1 4 22 26 18 31 31 -15 -20 -20 -20 -20 -20 -6 21 -20 -20 -20 -20 -20 -20 -20 -20 -20 -20 -20 -20 -20 -20 -20 -20 -20 -20 -20
26 9 -20 23 -14 29 -5 -2 4 6 -20 -13 21 3 -19 35 39 20 -20 -17 -2 -13 -20 -16 23 16 -17 -3 -20 -20 -20 -20 -20 -20 -20 -20 -20 -20 -20 -20 -20 -20 -20 -20 -20
27 14 0 23 1 18 14 26 22 8 -20 -20 -19 14 19 7 16 31 8 19 26 22 -20 -4 -2 -20 -13 -20 -20 -20 -20 -20 -20 -20 -20 -20 -20 -20 -20 -20 -20 -20 -20 -20 -20
27 15 12 12 19 19 -1 10 22 -12 11 -20 -20 -20 24 25 8 -20 -20 10 25 17 7 28 29 -2 -20 -16 -10 -20 -20 -20 -20 -20 -20 -20 -20 -20 -20 -20 -20 -20 -20 -20 -20
25 18 27 13 -20 -13 6 -20 -20 7 23 1 -14 8 7 32 28 16 18 10 -20 -11 5 19 -14 -20 -20 -14 16 8 -20 -20 -20 -20 -20 -20 -20 -20 -20 -20 -20 -20 -20 -20 -20
6 10 27 -19 -20 3 -20 -13 -1 27 -2 14 10 12 12 9 25 34 35 29 29 29 16 -9 -20 -20 -18 -20 -8 11 -20 -20 -20 -20 -20 -20 -20 -20 -20 -20 -20 -20 -20 -20 -20
Wind_Speed
20 20 18 17 17 16 16 15 11 11 11 12 12 12 12 14 18 15 16 13 2 3 3 10 9 8 8 7 3 4 4 6 8 5 4 8 4 2 4 3 1 4 7 8 13
20 20 21 19 18 17 16 18 15 12 11 10 12 11 11 12 17 18 15 10 9 5 6 12 10 10 7 9 5 4 4 5 7 7 4 7 6 8 3 5 4 7 7 9 9
21 19 20 21 19 18 17 17 19 14 12 11 11 10 10 11 9 2 8 7 7 6 11 12 12 10 9 7 8 8 11 11 4 6 5 2 2 1 3 5 7 10 14 11 8
22 21 19 19 20 19 18 19 19 19 13 11 10 7 9 6 6 5 6 2 3 8 11 13 11 10 7 11 9 12 13 16 4 4 1 4 3 1 6 8 4 7 15 11 11
23 21 21 19 20 19 19 18 20 18 17 13 10 4 6 9 13 10 7 8 6 9 13 13 12 9 11 9 10 13 9 10 5 7 5 6 5 6 7 8 7 5 5 10 11
23 22 22 20 20 19 18 19 20 22 22 13 10 5 7 16 10 13 5 5 9 14 14 13 11 10 9 14 9 5 11 14 6 7 7 6 8 7 9 8 10 9 10 9 9
23 23 23 21 20 18 17 19 20 22 21 16 13 8 14 21 10 4 2 8 11 14 15 14 12 6 3 8 9 2 5 8 7 7 7 4 8 10 14 10 10 10 8 10 10
23 23 22 22 20 18 16 18 20 21 22 13 14 12 12 14 22 20 14 9 8 8 14 10 9 5 8 1 2 3 7 7 8 12 6 8 8 13 3 6 7 8 8 10 12
23 22 23 22 19 16 16 17 22 21 20 15 8 9 8 10 18 17 17 14 10 9 10 10 7 8 9 6 6 7 6 14 9 4 7 7 6 1 5 6 6 8 9 9 9
24 22 21 21 18 16 15 21 21 18 10 12 7 10 10 14 9 20 16 16 14 11 11 9 5 10 12 9 11 8 12 9 8 8 6 8 10 11 8 10 11 11 10 9 10
24 22 21 20 18 16 9 8 4 6 9 10 11 10 7 19 7 16 19 17 16 13 15 14 12 16 18 16 12 15 10 9 6 13 8 9 8 10 10 9 9 9 9 10 10
21 20 20 20 18 14 4 5 3 6 11 14 19 21 23 3 11 13 17 18 21 17 18 11 20 17 16 16 18 16 12 8 7 3 7 7 10 11 11 13 12 10 10 10 9
20 21 19 19 19 9 9 10 7 3 8 9 13 19 12 14 17 15 22 22 22 22 23 22 15 18 18 16 15 15 12 7 8 6 4 7 12 16 14 18 16 12 10 9 10
20 20 20 18 12 9 9 7 5 5 7 7 11 14 23 2 11 20 20 22 12 25 21 20 21 23 20 17 15 14 7 8 8 4 5 2 6 11 14 11 9 10 10 10 13
20 20 20 14 11 9 12 6 2 3 8 11 15 9 19 19 7 17 19 23 19 15 20 18 19 19 19 23 14 10 5 5 6 5 6 10 8 7 11 10 10 6 4 2 4
19 20 19 11 6 12 10 7 3 8 8 5 8 18 21 22 20 8 17 20 19 16 16 20 10 16 13 9 9 5 5 2 5 2 8 12 11 6 8 10 2 4 6 8 6
20 20 17 11 11 11 7 0 4 7 3 7 6 16 29 23 26 18 23 25 21 21 20 15 17 4 5 12 9 7 7 3 4 4 7 9 9 10 7 7 4 5 3 3 8
18 19 14 13 12 11 6 4 11 8 15 6 3 19 24 19 21 29 29 22 24 17 12 17 14 16 8 11 13 14 15 7 7 6 4 2 7 5 8 0 2 2 4 3 6
19 10 11 13 14 7 6 11 6 14 5 9 9 16 20 23 14 22 18 27 29 24 16 18 16 17 16 8 15 9 17 12 9 14 4 5 5 5 6 8 2 4 2 2 4
6 7 14 16 12 8 10 17 13 18 12 10 6 10 10 23 17 23 25 23 27 30 22 9 10 16 11 12 14 12 11 7 6 5 6 5 8 6 8 10 8 4 4 5 6
4 5 9 10 9 6 7 8 17 23 19 4 6 7 14 15 19 26 24 17 30 29 22 18 8 6 14 12 15 12 12 7 6 10 5 1 6 1 12 10 10 2 7 4 8
3 6 1 2 6 4 8 10 16 16 17 17 7 7 10 10 19 22 28 24 29 25 32 22 9 12 18 10 10 18 22 16 7 5 11 9 9 2 7 8 8 5 8 6 8
3 6 7 3 4 4 9 18 21 20 19 4 8 14 11 12 9 27 19 27 17 30 29 25 8 13 12 8 9 11 15 11 14 6 17 8 6 4 8 9 8 8 7 7 6
3 5 3 3 4 4 2 8 16 19 22 20 13 9 15 11 15 10 28 10 11 9 20 24 13 20 18 15 9 13 17 19 18 16 11 21 14 3 8 9 8 8 8 10 10
3 4 5 3 3 4 5 3 12 8 15 18 15 18 12 5 12 16 17 6 9 13 15 18 21 18 20 10 21 19 18 21 24 24 17 12 16 15 9 9 8 8 5 8 11
3 4 4 6 11 13 8 5 13 17 15 17 21 15 21 22 16 12 22 7 8 17 12 18 19 20 16 20 19 16 18 26 25 21 17 14 23 6 7 5 3 4 2 4 7
3 5 4 6 8 8 8 12 9 12 12 12 19 19 20 26 13 12 16 15 15 11 16 17 12 14 20 14 11 17 25 14 17 17 18 23 18 6 9 8 6 7 5 4 6
Wind_Direction
325 323 328 333 337 330 338 293 256 262 269 280 288 297 306 311 311 292 266 242 322 219 169 260 216 222 236 256 276 288 282 234 229 264 135 109 188 99 25 118 26 131 77 99 126
320 320 320 326 329 335 335 334 269 250 259 271 284 295 305 314 303 282 253 191 137 167 213 227 208 219 214 222 188 230 244 265 12 55 31 144 205 155 161 222 158 99 96 117 134
324 315 314 313 319 327 332 327 341 245 244 258 272 288 303 313 288 291 56 106 157 184 244 246 232 205 226 220 207 222 246 266 100 59 4 126 230 94 180 261 193 194 166 154 160
320 317 314 311 313 319 326 327 327 325 236 242 250 272 303 287 263 135 124 125 220 210 242 253 243 240 232 237 225 237 225 256 338 88 342 236 251 171 219 252 77 66 148 158 178
323 314 311 309 309 310 320 326 321 311 266 228 225 239 287 229 240 243 183 196 205 196 223 230 229 228 222 235 231 228 261 266 208 121 256 287 256 242 266 248 254 165 142 178 183
326 321 313 308 301 309 309 320 316 320 326 232 200 167 234 251 261 256 213 235 223 198 218 230 231 225 233 246 236 219 216 253 190 212 217 231 260 245 240 240 251 233 190 203 221
333 327 319 314 304 305 309 312 311 314 318 236 200 205 237 233 278 92 224 245 226 199 219 230 241 282 201 290 257 278 293 282 255 229 229 194 263 247 245 224 242 244 229 197 219
333 331 325 326 306 305 305 312 311 300 307 218 208 219 244 238 236 259 259 246 256 233 230 227 244 256 262 358 352 228 249 252 239 209 165 135 263 277 61 159 241 251 214 208 213
330 332 328 325 309 306 303 308 303 288 293 220 212 227 238 213 232 236 212 219 205 231 233 247 240 224 244 233 235 204 237 219 253 200 131 164 265 182 142 158 225 247 235 224 201
330 336 337 332 321 312 316 306 282 283 263 206 224 221 264 232 201 221 218 216 212 196 206 215 225 212 231 201 220 215 216 249 222 189 196 195 237 265 244 201 220 221 231 223 199
327 329 336 333 327 322 330 318 321 225 229 196 185 221 266 217 241 197 191 194 221 194 199 194 206 208 211 225 225 254 246 225 234 156 166 216 257 267 263 255 248 247 244 238 221
329 325 329 334 333 322 294 286 352 49 302 280 256 220 244 32 231 217 191 185 200 198 196 197 219 213 216 226 228 248 262 267 285 225 170 219 250 252 268 261 249 242 238 242 233
328 324 328 329 321 281 241 263 14 276 254 272 221 228 207 228 242 214 189 190 193 200 198 211 204 213 227 223 239 227 235 248 245 266 231 265 265 256 251 239 245 243 240 238 233
323 322 320 328 297 341 296 62 1 299 254 229 208 223 223 159 252 237 195 190 187 205 206 216 221 199 217 233 217 239 218 250 276 338 273 318 277 307 302 277 246 239 235 235 220
322 320 315 326 298 291 305 144 49 333 257 175 198 182 190 187 156 232 222 199 214 192 208 213 200 216 198 219 222 227 242 284 263 225 273 267 275 261 240 250 242 150 139 79 83
319 316 314 301 279 282 276 283 59 233 231 193 186 185 171 198 216 209 206 204 214 214 212 224 194 216 213 215 193 219 219 292 310 318 259 232 231 233 231 214 158 160 198 199 175
309 309 303 285 268 290 307 271 233 243 337 207 210 193 187 188 203 191 198 194 204 204 208 210 225 147 207 185 186 186 139 206 229 219 236 229 225 223 280 320 296 112 352 1 148
304 305 280 266 261 251 236 212 234 233 245 305 213 221 204 182 205 187 194 197 206 195 188 197 213 176 178 200 189 189 190 179 200 196 239 80 226 241 227 164 279 75 143 166 176
312 288 266 254 237 227 213 227 218 220 230 296 268 227 217 204 176 196 211 201 197 198 199 193 217 176 162 188 183 182 215 225 294 289 280 228 240 272 241 231 150 73 63 18 129
304 286 261 250 242 207 216 227 242 249 281 339 261 218 206 211 198 174 194 212 205 207 208 179 202 189 165 191 235 183 171 197 222 217 247 240 247 237 207 214 127 76 87 104 112
279 269 266 231 174 210 229 220 235 259 277 239 325 321 270 191 213 185 190 204 210 193 208 220 225 169 148 197 186 207 211 220 179 222 198 227 249 206 204 147 129 106 125 142 157
259 258 288 140 192 207 221 216 238 244 238 237 248 274 265 297 206 228 215 198 189 192 201 205 210 192 204 199 208 206 217 206 208 210 227 243 245 224 92 129 127 112 132 138 155
258 265 256 142 255 276 274 247 239 243 249 242 230 224 257 279 308 220 224 212 214 193 193 192 221 192 203 198 219 218 205 214 233 259 238 212 238 67 172 159 151 156 143 150 162
260 285 232 181 262 284 301 314 272 235 237 247 230 252 293 285 275 257 231 221 243 194 200 186 197 205 197 208 147 192 215 212 210 225 226 233 246 229 153 163 185 196 183 162 166
212 253 273 281 248 228 265 257 299 317 237 230 250 243 248 298 290 260 226 160 160 246 220 178 211 215 231 226 179 195 203 215 221 227 217 226 232 237 234 213 215 206 202 186 173
260 263 318 287 288 278 269 275 290 295 254 238 238 243 226 246 245 311 341 189 193 220 217 174 209 221 233 227 242 213 220 215 223 231 250 250 253 259 280 296 295 213 230 219 201
218 256 253 257 269 283 270 274 277 313 294 297 254 252 246 239 251 251 295 285 309 224 201 179 188 200 225 228 232 244 215 214 213 218 223 234 244 220 248 255 244 224 212 222 222